Home   Weather   Washington Hill   Past weeks
Flag for USA

Past Weather in Washington Hill, Alabama, USA — Yesterday and Last 2 Weeks

Now
64 °F

Clear.


Feels Like: 64 °F
Forecast: 80 / 62 °F
Wind: No wind

Location: Maxwell Air Force Base / Montgomery

Current Time: Oct 20, 2019 at 9:34:22 pm

Latest Report: Oct 20, 2019 at 8:56 pm


Visibility: 10 mi

Pressure: 29.93 "Hg

Humidity: 95%

Dew Point: 62 °F

Location of Washington HillLocation

Past Weather in Washington Hill — Graph

°F

Washington Hill Temperature Yesterday

Maximum temperature yesterday: 66 °F (at 11:11 am)
Minimum temperature yesterday: 60 °F (at 8:56 pm)
Average temperature yesterday: 63 °F

High & Low Weather Summary for the Past Weeks

 TemperatureHumidityPressure
High90 °F (Oct 10, 2:58 pm)100% (Oct 13, 11:33 am)30.14 "Hg (Oct 13, 11:33 am)
Low49 °F (Oct 17, 4:56 am)32% (Oct 11, 2:56 pm)29.70 "Hg (Oct 19, 2:14 pm)
Average69 °F77%29.98 "Hg
* Reported Oct 5 7:56 pm — Oct 20 7:56 pm, Washington Hill. Weather by CustomWeather, © 2019

Note: Actual official high and low records may vary slightly from our data, if they occured in-between our weather recording intervals... More about our weather records

Advertising

Washington Hill Weather History for the Previous 24 Hours

Scroll right to see more
 ConditionsComfort  
Time TempWeatherWind HumidityBarometerVisibility
7:56 pm
Sun, Oct 20
65 °FClear.No wind91%29.93 "Hg10 mi
6:56 pm67 °FClear.No wind84%29.91 "Hg10 mi
5:56 pm73 °FSunny.No wind68%29.91 "Hg10 mi
4:56 pm77 °FSunny.No wind55%29.93 "Hg10 mi
3:56 pm76 °FSunny.3 mph60%29.93 "Hg10 mi
2:56 pm76 °FSunny.No wind64%29.93 "Hg10 mi
1:56 pm73 °FSunny.No wind69%29.93 "Hg10 mi
12:56 pm70 °FPassing clouds.3 mph75%29.95 "Hg10 mi
11:56 am67 °FOvercast.No wind80%29.96 "Hg10 mi
11:26 am66 °FOvercast.3 mph78%29.98 "Hg10 mi
10:56 am64 °FLow clouds.3 mph84%29.98 "Hg10 mi
9:56 am62 °FLow clouds.No wind88%29.97 "Hg10 mi
8:56 am61 °FLow clouds.No wind90%29.95 "Hg10 mi
7:56 am60 °FLow clouds.No wind91%29.92 "Hg10 mi
7:11 am59 °FLow clouds.5 mph94%29.90 "Hg10 mi
6:56 am59 °FLow clouds.6 mph91%29.90 "Hg10 mi
5:56 am60 °FLow clouds.3 mph92%29.89 "Hg10 mi
4:56 am60 °FLow clouds.No wind91%29.87 "Hg10 mi
3:56 am60 °FMostly cloudy.3 mph91%29.85 "Hg10 mi
3:26 am61 °FMostly cloudy.5 mph88%29.84 "Hg10 mi
2:56 am60 °FMostly cloudy.3 mph91%29.84 "Hg10 mi
2:41 am61 °FOvercast.5 mph88%29.83 "Hg10 mi
2:26 am61 °FMostly cloudy.3 mph88%29.83 "Hg10 mi
1:56 am60 °FLow clouds.3 mph91%29.83 "Hg10 mi
12:56 am61 °FLow clouds.5 mph90%29.80 "Hg10 mi
12:26 am61 °FMostly cloudy.3 mph88%29.80 "Hg10 mi
11:56 pm
Sat, Oct 19
61 °FMostly cloudy.3 mph89%29.80 "Hg10 mi
11:11 pm61 °FMostly cloudy.3 mph88%29.80 "Hg10 mi
10:56 pm61 °FMostly cloudy.6 mph89%29.79 "Hg10 mi
10:26 pm61 °FOvercast.7 mph88%29.79 "Hg10 mi
9:56 pm61 °FMostly cloudy.5 mph87%29.78 "Hg10 mi
Weather by CustomWeather, © 2019

See weather overview